User: anonymous   Login
Location: Unspecified
(0.0000°N, 0.0000°E)
Time: 19:02:55
(UTC+01:00)
Language:

Ariane H10 - Orbit

View from above orbital plane
View from above orbital plane
View from above satellite
View from above satellite

Ground track
Ground track

The orbit data is extracted from the following two-line orbital elements,

1 19122U 88040B   17054.71674631 -.00000159 +00000-0 -95018-3 0  9990
2 19122 006.9477 220.9064 7142526 044.3188 354.4069 02.33412885194302
Epoch (UTC): 23 February 2017 17:12:06
Eccentricity: 0.7142526
inclination: 6.9477°
perigee height: 481 km
apogee height: 34774 km
right ascension of ascending node: 220.9064°
argument of perigee: 44.3188°
revolutions per day: 2.33412885
mean anomaly at epoch: 354.4069°
orbit number at epoch: 19430

The dashed part of the orbit path shows where the satellite is in the earth's shadow,  

DLR